Flag for Italy Weather past 2 weeks in Modena, Italy

Now
68 °F

Clear.


Feels Like: 68 °F
Forecast: 64 / 89 °F
Wind: 9 mph from Southwest

Location: Bologna / Borgo Panigale

Current Time: Sep 1, 2015 at 6:26:15 AM

Latest Report: Sep 1, 2015 at 5:20 AM


Visibility: 10 mi

Pressure: 29.92 "Hg

Humidity: 53%

Dew point: 50 °F

Location of ModenaLocation

Historic Weather in Modena — Graph

°F

Modena temperature yesterday

Maximum temperature yesterday: 95 °F (at 3:50 PM)
Minimum temperature yesterday: 70 °F (at 6:20 AM)
Average temperature yesterday: 83 °F

Past Weeks' High & Low Weather Summary

 TemperatureHumidityPressure
High95 °F (Aug 30, 3:20 PM)100% (Aug 24, 4:50 AM)30.18 "Hg (Aug 24, 4:50 AM)
Low59 °F (Aug 23, 5:50 AM)25% (Aug 31, 4:50 PM)29.71 "Hg (Aug 17, 4:20 PM)
Average76 °F59%29.99 "Hg
* Reported Aug 17 4:20 AM — Sep 1 4:50 AM, Modena, Weather by CustomWeather, © 2015

Note: Actual official high and low records may vary slightly from our data, if they occured in-between our weather recording intervals... More about our weather records

Advertising

Modena weather history for previous 24 hours

 ConditionsComfort  
Time TempWeatherWind HumidityBarometerVisibility
4:50 AM
Tue, Sep 1
68 °FPassing clouds.8 mph53%29.92 "HgN/A
4:20 AM68 °FPassing clouds.5 mph56%29.95 "HgN/A
3:50 AM70 °FClear.3 mph50%29.95 "Hg10 mi
3:20 AM70 °FPassing clouds.3 mph53%29.95 "HgN/A
2:50 AM72 °FClear.6 mph50%29.95 "Hg10 mi
2:20 AM72 °FClear.8 mph50%29.95 "Hg10 mi
1:50 AM72 °FPassing clouds.8 mph53%29.95 "HgN/A
1:20 AM73 °FClear.2 mph47%29.92 "Hg10 mi
12:50 AM75 °FClear.7 mph47%29.92 "Hg10 mi
12:20 AM75 °FClear.7 mph47%29.92 "Hg10 mi
11:20 PM
Mon, Aug 31
77 °FClear.6 mph44%29.95 "Hg10 mi
10:50 PM79 °FPassing clouds.6 mph42%29.92 "HgN/A
10:20 PM81 °FClear.8 mph39%29.92 "Hg10 mi
9:50 PM81 °FClear.5 mph39%29.95 "Hg10 mi
9:20 PM84 °FClear.No wind33%29.95 "Hg10 mi
8:50 PM86 °FSunny.6 mph31%29.92 "Hg10 mi
8:20 PM84 °FPassing clouds.5 mph35%29.92 "HgN/A
7:50 PM88 °FPassing clouds.3 mph33%29.92 "HgN/A
7:20 PM91 °FSunny.2 mph28%29.92 "Hg10 mi
6:50 PM93 °FSunny.2 mph28%29.92 "Hg10 mi
6:20 PM93 °FSunny.7 mph26%29.92 "Hg10 mi
5:50 PM95 °FSunny.3 mph25%29.92 "Hg10 mi
5:20 PM93 °FSunny.6 mph26%29.95 "Hg10 mi
4:50 PM95 °FPassing clouds.5 mph25%29.95 "HgN/A
4:20 PM95 °FPassing clouds.6 mph28%29.95 "HgN/A
3:50 PM95 °FPassing clouds.6 mph26%29.95 "HgN/A
2:50 PM93 °FSunny.7 mph30%29.98 "Hg10 mi
2:20 PM93 °FSunny.3 mph34%29.98 "Hg10 mi
1:50 PM91 °FSunny.5 mph36%30.01 "Hg10 mi
1:20 PM90 °FSunny.5 mph38%30.01 "Hg10 mi
12:50 PM90 °FPassing clouds.6 mph41%30.01 "HgN/A
12:20 PM90 °FPassing clouds.6 mph38%30.01 "HgN/A
11:50 AM88 °FPassing clouds.8 mph38%30.04 "HgN/A
11:20 AM86 °FPassing clouds.7 mph40%30.04 "HgN/A
10:50 AM86 °FPassing clouds.8 mph40%30.04 "HgN/A
10:20 AM84 °FSunny.9 mph40%30.04 "Hg10 mi
9:50 AM82 °FPassing clouds.3 mph42%30.04 "HgN/A
9:20 AM79 °FSunny.6 mph48%30.04 "Hg10 mi
8:50 AM77 °FSunny.7 mph47%30.04 "Hg10 mi
8:20 AM73 °FSunny.8 mph53%30.04 "Hg10 mi
7:50 AM72 °FSunny.8 mph57%30.04 "Hg10 mi
7:20 AM70 °FClear.6 mph60%30.04 "Hg10 mi
6:50 AM70 °FClear.7 mph60%30.04 "Hg10 mi
6:20 AM70 °FClear.8 mph60%30.04 "Hg10 mi
Weather by CustomWeather, © 2015

See weather overviewHow to use our weather pages